Starlink 32664

operational
NORAD ID: 62204 Int'l Des: 2024-229 Owner: SPXS Country: US Constellation: starlink
LEOCIRCULAR

Starlink 32664について

説明を読み込み中...

リアルタイム位置

3D地球を読み込み中...

次回通過

高度履歴

Altitude vs Time

uPlot chart will show altitude changes over time

軌道要素

1 62204U 24229N 25351.06716028 .00020695 00000-0 75887-3 0 9999
2 62204 43.0047 17.4696 0001942 289.5476 70.5166 15.27604464 57921
Epoch: Dec 17, 2025 • Age: 19 hours

現在のステータス

高度 487.1 km
速度 7.63 km/s
衛星直下点 42.76°N, 54.51°E
打ち上げ日 Dec 4, 2024
運用期間 1 years
タイプ internet

技術仕様

分類 Payload
質量 730.00 kg
乾燥質量 700.00 kg
総質量 730.00 kg
長さ 0.30 m
直径 4.10 m
スパン 29.00 m
形状 Box + pan
製造者 SPXS
バスタイプ Starlink V2M
フェーズステータス In Orbit
所有者/国 SPXS/US

大規模コンステレーション

Loading constellations...